Regional Weather Roundup
Issued by NWS

Home | Current Version | Previous Version | Text Only | Print | Product List | Glossary Off
Versions: 1 2 3 4 5 6 7 8 9 10 11 12 13 14 15 16 17 18 19 20 21 22 23 24 25 26 27 28 29 30 31 32 33 34 35 36 37 38 39 40 41 42 43 44 45 46 47 48 49 50

000
ASUS43 KDTX 190010
RWRMI
MICHIGAN HOURLY REGIONAL WEATHER ROUNDUP
NATIONAL WEATHER SERVICE DETROIT/PONTIAC MI
700 PM EST SAT NOV 18 2017

NOTE: "FAIR" INDICATES FEW OR NO CLOUDS BELOW 12,000 FEET WITH NO
SIGNIFICANT WEATHER AND/OR OBSTRUCTION TO VISIBILITY.

MIZ047>049-052>055-059>063-066>070-074>076-081>083-190100-
SOUTHEAST LOWER MICHIGAN

CITY           SKY/WX    TMP DP  RH WIND       PRES   REMARKS
ADRIAN         FLURRIES  37  35  92 N18G25    29.37R WCI  27
6HR MIN TEMP:  37; 6HR MAX TEMP:  46; 6HR PCP:  0.59;

ALMA           LGT RAIN  35  35 100 NW9       29.46S WCI  28
ANN ARBOR      FLURRIES  36  34  92 NW15G25   29.35R WCI  27
BAD AXE        LGT SNOW  37  36  96 N17       29.38S WCI  27
6HR MIN TEMP:  36; 6HR MAX TEMP:  41;

CARO           LGT SNOW  34  33  96 NW10      29.40R WCI  26
DETROIT CITY   LGT RAIN  43  32  65 N16G26    29.32R
6HR MIN TEMP:  43; 6HR MAX TEMP:  59; 6HR PCP:  0.56;

DETROIT        RAIN      40  38  93 N21G29    29.33R FOG     WCI  30
6HR MIN TEMP:  40; 6HR MAX TEMP:  47; 6HR PCP:  0.70;

FLINT          LGT SNOW  33  32  96 NW12      29.40R FOG     WCI  24
6HR MIN TEMP:  33; 6HR MAX TEMP:  45; 6HR PCP:  0.43;

GROSSE ILE     LGT SNOW  42  41  93 N17G25    29.30R
6HR MIN TEMP:  42; 6HR MAX TEMP:  47; 6HR PCP:  0.64;

HILLSDALE      LGT SNOW  34  32  93 NW22G29   29.39R WCI  22
HOWELL         LGT SNOW  33  33  99 N12G18    29.39R WCI  24
6HR MIN TEMP:  33; 6HR MAX TEMP:  44; 6HR PCP:  0.39;


CITY           SKY/WX    TMP DP  RH WIND       PRES   REMARKS
JACKSON        LGT SNOW  34  32  92 NW10G21   29.41R FOG     WCI  26
6HR MIN TEMP:  34; 6HR MAX TEMP:  45; 6HR PCP:  0.55;

LAMBERTVILLE   LGT RAIN  43  41  92 NW16      29.31R
6HR MIN TEMP:  43; 6HR MAX TEMP:  51;

LANSING        LGT SNOW  33  33 100 N15G23    29.45R FOG     WCI  23
6HR MIN TEMP:  33; 6HR MAX TEMP:  43; 6HR PCP:  0.37;

LAPEER         LGT SNOW  34  33  99 N13       29.38R WCI  25
6HR MIN TEMP:  34; 6HR MAX TEMP:  44; 6HR PCP:  0.27;

MASON          LGT SNOW  35  33  93 N14G20    29.42R WCI  25
MONROE         LGT RAIN  44  41  89 N17G25    29.29R
6HR MIN TEMP:  44; 6HR MAX TEMP:  49; 6HR PCP:  0.59;

MT. CLEMENS    LGT RAIN  38  38 100 N21G33    29.29R FOG     WCI  28
6HR MIN TEMP:  38; 6HR MAX TEMP:  45; 6HR PCP:  0.59;

PONTIAC        LGT SNOW  34  34 100 NW20G25   29.33R FOG     WCI  23
6HR MIN TEMP:  34; 6HR MAX TEMP:  44; 6HR PCP:  0.52;

PORT HOPE        N/A     39  35  86 N14G23    29.36S WCI  31
6HR MIN TEMP:  39; 6HR MAX TEMP:  42; 6HR PCP:  0.38;

PORT HURON     LGT RAIN  39  36  87 N13G24    29.30R WCI  32
TRI CITIES     LGT RAIN  35  34  96 NW13      29.45R WCI  26
6HR MIN TEMP:  33; 6HR MAX TEMP:  42; 6HR PCP:  0.51;

MIDLAND        MIX PCPN  36  35  98 NW6       29.44S WCI  31
6HR MIN TEMP:  33; 6HR MAX TEMP:  41; 6HR PCP:  0.29;

TROY           LGT SNOW  39  36  90 NW14G20   29.35R WCI  30
SAGINAW HB     LGT SNOW  32  32 100 NW13      29.43R WCI  22
$$
MIZ043>046-050>051-056>058-064>065-071>073-077>080-190100-
SOUTHWEST LOWER MICHIGAN

CITY           SKY/WX    TMP DP  RH WIND       PRES   REMARKS
BATTLE CREEK   LGT RAIN  37  34  89 N13       29.47R WCI  29
6HR MIN TEMP:  36; 6HR MAX TEMP:  44; 6HR PCP:  0.29;

BENTON HARBOR  CLOUDY    43  38  82 N8G20     29.54R
6HR MIN TEMP:  42; 6HR MAX TEMP:  44; 6HR PCP:  0.28;

BIG RAPIDS     CLOUDY    38  35  87 NW10      29.49R WCI  31
6HR MIN TEMP:  35; 6HR MAX TEMP:  38; 6HR PCP:  0.03;

COLDWATER      LGT SNOW  35  35 100 N15G21    29.44R WCI  25
6HR MIN TEMP:  35; 6HR MAX TEMP:  46;

FREMONT        CLOUDY    39  38  94 N13G21    29.52R WCI  32
HOLLAND        CLOUDY    41  37  86 N10       29.54R
6HR MIN TEMP:  40; 6HR MAX TEMP:  41; 6HR PCP:  0.30;

GRAND RAPIDS   CLOUDY    40  39  97 N12       29.49R WCI  33
6HR MIN TEMP:  37; 6HR MAX TEMP:  41; 6HR PCP:  0.37;

IONIA          DRIZZLE   37  36  97 NW10      29.47R WCI  29
6HR MIN TEMP:  33; 6HR MAX TEMP:  41; 6HR PCP:  0.18;

KALAMAZOO      LGT RAIN  37  33  85 N17G25    29.48R WCI  27
6HR MIN TEMP:  37; 6HR MAX TEMP:  43; 6HR PCP:  0.18;

LUDINGTON      CLOUDY    40  33  76 N15G29    29.56R WCI  31
6HR MIN TEMP:  39; 6HR MAX TEMP:  41; 6HR PCP:  0.02;

MARSHALL       FLURRIES  34  33  97 NW7G18    29.44R WCI  28
6HR MIN TEMP:  33; 6HR MAX TEMP:  44; 6HR PCP:  0.31;

MOUNT PLEASANT CLOUDY    38  35  89 NW7       29.47R WCI  32
6HR MIN TEMP:  34; 6HR MAX TEMP:  40; 6HR PCP:  0.16;

MUSKEGON       LGT RAIN  41  37  86 N13       29.54R
6HR MIN TEMP:  40; 6HR MAX TEMP:  42; 6HR PCP:  0.09;

SOUTH HAVEN    CLOUDY    43  38  82 N13G21    29.53R
$$
MIZ016>042-190100-
NORTHERN LOWER MICHIGAN

CITY           SKY/WX    TMP DP  RH WIND       PRES   REMARKS
ALPENA         CLOUDY    38  35  89 N10       29.45R WCI  31
6HR MIN TEMP:  38; 6HR MAX TEMP:  39; 6HR PCP:  0.12;

BEAVER ISLAND  CLOUDY    37  33  82 N10G23    29.58R WCI  30
6HR MIN TEMP:  37; 6HR MAX TEMP:  40;

BELLAIRE       CLOUDY    38  34  85 NW8G23    29.54R WCI  33
6HR MIN TEMP:  37; 6HR MAX TEMP:  39;

CADILLAC       CLOUDY    36  34  93 N12G20    29.49R WCI  28
CHARLEVOIX     CLOUDY    40  31  71 N17G31    29.58R WCI  31
6HR MIN TEMP:  40; 6HR MAX TEMP:  41;

FRANKFORT      CLOUDY    41  32  71 N15G26    29.58R
GAYLORD        CLOUDY    34  31  88 VRB7      29.49R WCI  28
6HR MIN TEMP:  34; 6HR MAX TEMP:  35; 6HR PCP: TRACE;

GRAYLING       LGT RAIN  36  33  88 NW12      29.49R WCI  28
6HR MIN TEMP:  35; 6HR MAX TEMP:  37;

HARBOR SPRINGS CLOUDY    37  35  93 N7        29.54R WCI  31
MANISTEE       CLOUDY    41  33  73 N12G30    29.57R
OSCODA         MIX PCPN  36  35  94 N12       29.42R WCI  28
6HR MIN TEMP:  32; 6HR MAX TEMP:  38; 6HR PCP:  0.18;

PELLSTON       CLOUDY    37  34  89 NW13      29.54R WCI  29
6HR MIN TEMP:  37; 6HR MAX TEMP:  39; 6HR PCP:  0.01;

ROGERS CITY    CLOUDY    38  32  80 N16G23    29.49R WCI  29
TRAVERSE CITY  LGT RAIN  40  34  79 NW16G26   29.55R WCI  31
6HR MIN TEMP:  40; 6HR MAX TEMP:  42; 6HR PCP:  0.01;

$$
MIZ007>008-015-190100-
EASTERN UPPER MICHIGAN

CITY           SKY/WX    TMP DP  RH WIND       PRES   REMARKS
KINROSS        CLOUDY    35  31  85 N12       29.53R WCI  27
6HR MIN TEMP:  34; 6HR MAX TEMP:  37;

MACKINAC ISLAN CLOUDY    38  33  84 N9G17     29.52S WCI  31
6HR MIN TEMP:  37; 6HR MAX TEMP:  39;

NEWBERRY       CLOUDY    33  32  96 NW8       29.57R WCI  26
6HR MIN TEMP:  33; 6HR MAX TEMP:  36;

S. S. MARIE    CLOUDY    37  30  75 N12G18    29.53R WCI  29
6HR MIN TEMP:  36; 6HR MAX TEMP:  39;

MUNISING         N/A     36  32  85 NW18G26   29.65R WCI  26
6HR MIN TEMP:  36; 6HR MAX TEMP:  40; 6HR PCP:  0.01;

$$
MIZ004>006-011>014-085-190100-
CENTRAL UPPER MICHIGAN

CITY           SKY/WX    TMP DP  RH WIND       PRES   REMARKS
MANISTIQUE     CLOUDY    34  29  83 NW15G24   29.61R WCI  24
6HR MIN TEMP:  34; 6HR MAX TEMP:  40;

ESCANABA       CLOUDY    34  26  72 N17G28    29.66R WCI  23
6HR MIN TEMP:  34; 6HR MAX TEMP:  40; 6HR PCP: TRACE;

MENOMINEE      CLOUDY    35  27  72 N13       29.68R WCI  26
6HR MIN TEMP:  35; 6HR MAX TEMP:  40;

SAWYER-GWINN   CLOUDY    30  25  80 NW22G31   29.67R WCI  17
$$
MIZ001>003-009>011-084-190100-
WESTERN UPPER MICHIGAN

CITY           SKY/WX    TMP DP  RH WIND       PRES   REMARKS
IRON MOUNTAIN  CLOUDY    31  24  75 NW22G30   29.68R WCI  18
6HR MIN TEMP:  31; 6HR MAX TEMP:  35;

HOUGHTON       CLOUDY    29  22  75 NW14      29.72R WCI  18
6HR MIN TEMP:  28; 6HR MAX TEMP:  32;

COPPER HARBOR    N/A     32  26  78 N18G28    29.73R WCI  20
6HR MIN TEMP:  31; 6HR MAX TEMP:  35;

IRONWOOD       FLURRIES N/A N/A N/A NW17      29.80R
                                      6HR PCP: TRACE;

$$

ABBREVIATIONS USED IN REMARKS
   TC - TEMPERATURE IN CELSIUS
  WCI - WIND CHILL INDEX
   HX - HEAT INDEX
  VSB - VISIBILITY





USA.gov is the U.S. government's official web portal to all federal, state and local government web resources and services.